,,PA_Meas_PMT16A,,PR_Meas_QMR101_102,,RH_Meas_QMH101,,SR_Meas_QMS101,,TA_Meas_QMH101,,GenWind,,GenWind,
time,status,PA,status,PR,status,RH,status,SR,status,TA,status,DirAvg,status,SpdAvg,
2017-02-07, 00:00:04,VALID,915.948,VALID,0,VALID,67.7341,VALID,188.344,VALID,24.5173,VALID,35,VALID,0.514063,
2017-02-07, 00:01:04,VALID,915.979,VALID,0,VALID,67.6426,VALID,187.7,VALID,24.4959,VALID,358,VALID,0,
2017-02-07, 00:02:04,VALID,916.002,VALID,0,VALID,66.3466,VALID,186.41,VALID,24.5759,VALID,238,VALID,0,
2017-02-07, 00:03:04,VALID,915.973,VALID,0,VALID,65.0735,VALID,187.377,VALID,24.5759,VALID,31,VALID,1.08594,
2017-02-07, 00:04:04,VALID,915.994,VALID,0,VALID,66.4152,VALID,190.278,VALID,24.3788,VALID,262,VALID,0,
2017-02-07, 00:05:04,VALID,916.016,VALID,0,VALID,67.5053,VALID,195.758,VALID,24.3398,VALID,238,VALID,0,
2017-02-07, 00:06:04,VALID,916.068,VALID,0,VALID,67.4825,VALID,195.328,VALID,24.4002,VALID,127,VALID,0,
2017-02-07, 00:07:04,VALID,916.112,VALID,0,VALID,65.0582,VALID,195.221,VALID,24.416,VALID,249,VALID,0,
2017-02-07, 00:08:05,VALID,916.106,VALID,0,VALID,66.0645,VALID,201.13,VALID,24.3983,VALID,57,VALID,0,
2017-02-07, 00:09:05,VALID,916.108,VALID,0,VALID,68.1838,VALID,200.808,VALID,24.416,VALID,39,VALID,0,
2017-02-07, 00:10:05,VALID,916.071,VALID,0,VALID,66.5677,VALID,179.964,VALID,24.4178,VALID,70,VALID,0.0148437,
2017-02-07, 00:11:05,VALID,916.137,VALID,0,VALID,67.3757,VALID,143.434,VALID,24.4959,VALID,82,VALID,0,
2017-02-07, 00:12:05,VALID,916.093,VALID,0,VALID,67.208,VALID,165.997,VALID,24.5155,VALID,195,VALID,0,
2017-02-07, 00:13:05,VALID,916.132,VALID,0,VALID,67.978,VALID,181.146,VALID,24.4959,VALID,24,VALID,0,
2017-02-07, 00:14:05,VALID,916.12,VALID,0,VALID,68.5269,VALID,179.104,VALID,24.4764,VALID,27,VALID,0,
2017-02-07, 00:15:05,VALID,916.132,VALID,0,VALID,69.8305,VALID,178.782,VALID,24.4745,VALID,20,VALID,0,
2017-02-07, 00:16:05,VALID,916.138,VALID,0,VALID,69.1977,VALID,174.484,VALID,24.5155,VALID,306,VALID,0,
2017-02-07, 00:17:05,VALID,916.186,VALID,0,VALID,68.6412,VALID,169.22,VALID,24.5545,VALID,25,VALID,0,
2017-02-07, 00:18:05,VALID,916.181,VALID,0,VALID,69.6247,VALID,164.815,VALID,24.5935,VALID,20,VALID,0,
2017-02-07, 00:19:05,VALID,916.215,VALID,0,VALID,68.1533,VALID,159.55,VALID,24.6502,VALID,131,VALID,0,
2017-02-07, 00:20:05,VALID,916.228,VALID,0,VALID,68.0695,VALID,156.005,VALID,24.7107,VALID,182,VALID,0,
2017-02-07, 00:21:05,VALID,916.247,VALID,0,VALID,69.9448,VALID,155.252,VALID,24.7107,VALID,115,VALID,0,
2017-02-07, 00:22:05,VALID,916.246,VALID,0,VALID,68.5498,VALID,154.608,VALID,24.7497,VALID,117,VALID,0,
2017-02-07, 00:23:05,VALID,916.213,VALID,0,VALID,68.0161,VALID,150.418,VALID,24.6716,VALID,47,VALID,0,
2017-02-07, 00:24:05,VALID,916.206,VALID,0,VALID,70.4937,VALID,146.979,VALID,24.6131,VALID,60,VALID,0,
2017-02-07, 00:25:05,VALID,916.192,VALID,0,VALID,67.452,VALID,143.112,VALID,24.6131,VALID,3,VALID,0,
2017-02-07, 00:26:05,VALID,916.24,VALID,0,VALID,68.7556,VALID,139.244,VALID,24.574,VALID,61,VALID,0,
2017-02-07, 00:27:05,VALID,916.288,VALID,0,VALID,68.2143,VALID,135.806,VALID,24.5545,VALID,210,VALID,0,
2017-02-07, 00:28:05,VALID,916.281,VALID,0,VALID,67.6731,VALID,132.475,VALID,24.5173,VALID,171,VALID,0,
2017-02-07, 00:29:05,VALID,916.317,VALID,0,VALID,68.4888,VALID,129.896,VALID,24.4569,VALID,27,VALID,0,
2017-02-07, 00:30:05,VALID,916.328,VALID,0,VALID,70.3794,VALID,127.318,VALID,24.4569,VALID,27,VALID,0,
2017-02-07, 00:31:05,VALID,916.348,VALID,0,VALID,71.622,VALID,125.706,VALID,24.3026,VALID,27,VALID,0,
2017-02-07, 00:32:05,VALID,916.345,VALID,0,VALID,72.0337,VALID,124.202,VALID,24.2245,VALID,19,VALID,0,
2017-02-07, 00:33:05,VALID,916.321,VALID,0,VALID,70.7453,VALID,121.731,VALID,24.1659,VALID,9,VALID,0,
2017-02-07, 00:35:04,VALID,916.339,VALID,0,VALID,73.5126,VALID,116.681,VALID,23.8322,VALID,11,VALID,0.491016,
2017-02-07, 00:37:04,VALID,916.349,VALID,0,VALID,74.6942,VALID,111.416,VALID,23.6388,VALID,17,VALID,0,
2017-02-07, 14:40:05,INVALID - VALUE NOT AVAILABLE,0,INVALID - VALUE NOT AVAILABLE,0,INVALID - VALUE NOT AVAILABLE,0,INVALID - VALUE NOT AVAILABLE,0,INVALID - VALUE NOT AVAILABLE,0,INVALID,360,INVALID,0,
2017-02-07, 15:24:04,VALID,920.26,VALID,0,INVALID,126.282,VALID,107.119,VALID,18.3004,VALID,254,VALID,3.25547,
2017-02-07, 15:25:04,VALID,920.315,VALID,0,INVALID,126.533,VALID,112.061,VALID,18.2809,VALID,234,VALID,1.80508,
2017-02-07, 15:26:04,VALID,920.42,VALID,0,INVALID,126.503,VALID,113.565,VALID,18.3589,VALID,200,VALID,2.20977,
2017-02-07, 15:27:04,VALID,920.453,VALID,0.2,INVALID,126.594,VALID,109.483,VALID,18.3784,VALID,188,VALID,1.51328,
2017-02-07, 15:28:04,VALID,920.449,VALID,0,INVALID,126.785,VALID,104.11,VALID,18.3784,VALID,178,VALID,2.71328,
2017-02-07, 15:42:04,VALID,920.244,VALID,0,INVALID,131.801,VALID,110.45,VALID,18.2225,VALID,173,VALID,1.52813,
2017-02-07, 15:43:04,VALID,920.236,VALID,0,INVALID,132.114,VALID,113.673,VALID,18.2225,VALID,164,VALID,1.88906,
2017-02-07, 15:44:04,VALID,920.219,VALID,0,INVALID,132.182,VALID,116.359,VALID,18.2615,VALID,187,VALID,1.22891,
2017-02-07, 15:45:04,VALID,920.214,VALID,0,INVALID,132.175,VALID,119.475,VALID,18.299,VALID,178,VALID,0.990625,
2017-02-07, 15:46:04,VALID,920.181,VALID,0,INVALID,132.19,VALID,127.962,VALID,18.3004,VALID,168,VALID,1.79727,
2017-02-07, 15:47:04,VALID,920.168,VALID,0,INVALID,131.87,VALID,146.335,VALID,18.3004,VALID,186,VALID,1.51641,
2017-02-07, 15:48:04,VALID,920.107,VALID,0,INVALID,131.573,VALID,170.402,VALID,18.3965,VALID,182,VALID,1.09805,
2017-02-07, 15:49:04,VALID,920.091,VALID,0,INVALID,131.428,VALID,197.907,VALID,18.4564,VALID,181,VALID,0.965625,
2017-02-07, 15:50:04,VALID,920.07,VALID,0,INVALID,131.214,VALID,225.841,VALID,18.5149,VALID,156,VALID,1.19609,
2017-02-07, 15:51:04,VALID,920.018,VALID,0,INVALID,129.911,VALID,329.522,VALID,18.5344,VALID,181,VALID,1.45313,
2017-02-07, 15:52:04,VALID,919.977,VALID,0,INVALID,129.499,VALID,234.974,VALID,18.6708,VALID,180,VALID,0.7375,
2017-02-07, 15:53:04,VALID,919.985,VALID,0,INVALID,129.735,VALID,247.115,VALID,18.7878,VALID,218,VALID,0,
2017-02-07, 15:54:04,VALID,919.958,VALID,0,INVALID,130.391,VALID,236.263,VALID,18.9048,VALID,215,VALID,0.178906,
2017-02-07, 15:55:04,VALID,919.958,VALID,0,INVALID,130.597,VALID,260.652,VALID,18.9633,VALID,263,VALID,0.0078125,
2017-02-07, 15:56:04,VALID,919.915,VALID,0,INVALID,130.604,VALID,311.687,VALID,19.0008,VALID,242,VALID,0.191797,
2017-02-07, 15:57:04,VALID,919.88,VALID,0,INVALID,128.455,VALID,409.673,VALID,19.0608,VALID,279,VALID,1.55273,
2017-02-07, 15:58:04,VALID,919.883,VALID,0,INVALID,128.317,VALID,405.805,VALID,19.1568,VALID,218,VALID,0.798437,
2017-02-07, 15:59:04,VALID,919.865,VALID,0,INVALID,130.307,VALID,263.661,VALID,19.3713,VALID,289,VALID,0,
2017-02-07, 16:00:04,VALID,919.826,VALID,0,INVALID,128.775,VALID,394.631,VALID,19.3323,VALID,291,VALID,0,
2017-02-07, 16:01:04,VALID,919.845,VALID,0,INVALID,128.775,VALID,395.169,VALID,19.3908,VALID,246,VALID,0,
2017-02-07, 16:02:04,VALID,919.824,VALID,0,INVALID,127.707,VALID,355.2,VALID,19.4688,VALID,5,VALID,0,
2017-02-07, 16:03:04,VALID,919.778,VALID,0,INVALID,128.706,VALID,241.42,VALID,19.6443,VALID,23,VALID,0,
2017-02-07, 16:04:04,VALID,919.816,VALID,0,INVALID,124.605,VALID,228.635,VALID,19.6443,VALID,280,VALID,0,
2017-02-07, 16:05:04,VALID,919.814,VALID,0,VALID,101.856,VALID,262.049,VALID,19.6248,VALID,283,VALID,0,
2017-02-07, 16:06:04,VALID,919.868,VALID,0,VALID,103.175,VALID,419.343,VALID,19.5843,VALID,310,VALID,0,
2017-02-07, 16:07:04,VALID,919.866,VALID,0,INVALID,118.933,VALID,350.258,VALID,19.5843,VALID,343,VALID,0,
2017-02-07, 16:08:04,VALID,919.851,VALID,0,INVALID,129.103,VALID,423.318,VALID,19.7208,VALID,18,VALID,1.53906,
2017-02-07, 16:09:04,VALID,919.837,VALID,0,INVALID,129.728,VALID,392.912,VALID,19.8003,VALID,31,VALID,1.01758,
2017-02-07, 16:10:04,VALID,919.853,VALID,0,INVALID,130.803,VALID,328.985,VALID,19.9353,VALID,21,VALID,0,
2017-02-07, 16:11:04,VALID,919.834,VALID,0,INVALID,130.528,VALID,450.393,VALID,20.0343,VALID,322,VALID,0,
2017-02-07, 16:12:04,VALID,919.838,VALID,0,INVALID,124.94,VALID,453.939,VALID,19.9353,VALID,268,VALID,0,
2017-02-07, 16:13:04,VALID,919.837,VALID,0,INVALID,126.594,VALID,468.981,VALID,20.0328,VALID,268,VALID,0,
2017-02-07, 16:14:04,VALID,919.839,VALID,0,INVALID,126.915,VALID,484.345,VALID,20.0913,VALID,308,VALID,0,
2017-02-07, 16:15:04,VALID,919.81,VALID,0,INVALID,127.128,VALID,470.162,VALID,20.1708,VALID,32,VALID,0.609766,
2017-02-07, 16:16:04,VALID,919.856,VALID,0,INVALID,123.888,VALID,489.609,VALID,20.1693,VALID,14,VALID,0,
2017-02-07, 16:17:04,VALID,919.907,VALID,0,INVALID,127.814,VALID,551.066,VALID,20.2879,VALID,232,VALID,0,
2017-02-07, 16:18:04,VALID,919.887,VALID,0,INVALID,127.258,VALID,437.715,VALID,20.3058,VALID,263,VALID,0,
2017-02-07, 16:19:04,VALID,919.878,VALID,0,INVALID,128.485,VALID,298.364,VALID,20.4033,VALID,267,VALID,0,
2017-02-07, 16:20:04,VALID,919.823,VALID,0,INVALID,126.724,VALID,556.867,VALID,20.4423,VALID,2,VALID,0,
2017-02-07, 16:21:04,VALID,919.863,VALID,0,INVALID,129.087,VALID,562.132,VALID,20.6179,VALID,2,VALID,0,
2017-02-07, 16:22:04,VALID,919.849,VALID,0,INVALID,128.683,VALID,429.765,VALID,20.7544,VALID,7,VALID,0,
2017-02-07, 16:23:04,VALID,919.799,VALID,0,INVALID,129.766,VALID,501.643,VALID,20.9495,VALID,358,VALID,0,
2017-02-07, 16:24:04,VALID,919.861,VALID,0,INVALID,127.845,VALID,535.594,VALID,21.008,VALID,325,VALID,0,
2017-02-07, 16:25:04,VALID,919.872,VALID,0,INVALID,128.264,VALID,567.504,VALID,21.1445,VALID,355,VALID,0,
2017-02-07, 16:26:04,VALID,919.91,VALID,0,INVALID,128.92,VALID,262.586,VALID,21.299,VALID,354,VALID,0,
2017-02-07, 16:27:04,VALID,919.888,VALID,0,INVALID,121.311,VALID,208.543,VALID,21.3396,VALID,319,VALID,0.4375,
2017-02-07, 16:28:04,VALID,919.931,VALID,0,INVALID,114.359,VALID,182.757,VALID,21.2421,VALID,332,VALID,0.378906,
2017-02-07, 16:29:04,VALID,919.911,VALID,0,INVALID,127.319,VALID,208.328,VALID,21.2421,VALID,360,VALID,0.817969,
2017-02-07, 16:30:04,VALID,919.909,VALID,0,INVALID,125.588,VALID,522.379,VALID,21.1836,VALID,19,VALID,1.00977,
2017-02-07, 16:31:04,VALID,919.916,VALID,0,INVALID,127.433,VALID,261.512,VALID,21.1819,VALID,17,VALID,0.842578,
2017-02-07, 16:32:04,VALID,919.923,VALID,0,INVALID,128.096,VALID,282.463,VALID,21.221,VALID,19,VALID,0,
2017-02-07, 16:33:04,VALID,919.961,VALID,0,INVALID,128.538,VALID,288.05,VALID,21.3185,VALID,11,VALID,0.953906,
2017-02-07, 16:34:04,VALID,919.942,VALID,0,INVALID,128.546,VALID,518.404,VALID,21.4372,VALID,11,VALID,0.416406,
2017-02-07, 16:35:04,VALID,919.912,VALID,0,INVALID,126.991,VALID,406.88,VALID,21.4762,VALID,20,VALID,0,
2017-02-07, 16:36:04,VALID,919.964,VALID,0,INVALID,127.136,VALID,589.207,VALID,21.5542,VALID,314,VALID,0,
2017-02-07, 16:37:04,VALID,919.97,VALID,0,INVALID,128.325,VALID,320.282,VALID,21.7493,VALID,347,VALID,0,
2017-02-07, 16:38:04,VALID,920.011,VALID,0,INVALID,125.375,VALID,280.529,VALID,21.8469,VALID,350,VALID,0,
2017-02-07, 16:39:04,VALID,920.029,VALID,0,VALID,104,VALID,365.837,VALID,21.7883,VALID,272,VALID,0,
2017-02-07, 16:40:04,VALID,920.032,VALID,0,INVALID,109.198,VALID,472.849,VALID,21.7672,VALID,18,VALID,0,
2017-02-07, 16:41:04,VALID,920.084,VALID,0,INVALID,122.592,VALID,446.096,VALID,21.8469,VALID,358,VALID,0,
2017-02-07, 16:42:04,VALID,920.071,VALID,0,VALID,101.026,VALID,380.771,VALID,21.7087,VALID,30,VALID,0,
2017-02-07, 16:43:04,VALID,920.031,VALID,0,INVALID,120.488,VALID,616.605,VALID,21.6891,VALID,15,VALID,0,
2017-02-07, 16:44:04,VALID,920.057,VALID,0,INVALID,116.326,VALID,580.397,VALID,21.7672,VALID,24,VALID,0,
2017-02-07, 16:45:04,VALID,920.01,VALID,0,INVALID,115.342,VALID,575.133,VALID,21.9233,VALID,353,VALID,0,
2017-02-07, 16:46:04,VALID,920.047,VALID,0,VALID,104,VALID,502.932,VALID,22.1184,VALID,265,VALID,0,
2017-02-07, 16:47:04,VALID,920.035,VALID,0,VALID,96.0779,VALID,439.005,VALID,22.2745,VALID,336,VALID,0,
2017-02-07, 16:48:04,VALID,920.012,VALID,0,VALID,100.073,VALID,436.533,VALID,22.4891,VALID,344,VALID,0,
2017-02-07, 16:49:04,VALID,920.051,VALID,0,VALID,85.0468,VALID,402.26,VALID,22.3899,VALID,267,VALID,0,
2017-02-07, 16:50:04,VALID,920.053,VALID,0,VALID,87.6617,VALID,387.325,VALID,22.2533,VALID,261,VALID,0,
2017-02-07, 16:51:04,VALID,920.065,VALID,0,VALID,87.7379,VALID,390.119,VALID,22.1574,VALID,267,VALID,0.525781,
2017-02-07, 16:52:04,VALID,920.063,VALID,0,VALID,91.8622,VALID,393.342,VALID,22.1947,VALID,10,VALID,0,
2017-02-07, 16:53:04,VALID,920.06,VALID,0,VALID,104,VALID,384.639,VALID,22.2728,VALID,24,VALID,0,
2017-02-07, 16:54:04,VALID,920.069,VALID,0,VALID,96.7335,VALID,389.582,VALID,22.3703,VALID,314,VALID,0,
2017-02-07, 16:55:04,VALID,920.058,VALID,0,VALID,102.009,VALID,382.168,VALID,22.4501,VALID,239,VALID,0,
2017-02-07, 16:56:04,VALID,920.077,VALID,0,VALID,93.8214,VALID,373.573,VALID,22.5672,VALID,346,VALID,0,
2017-02-07, 16:57:04,VALID,920.086,VALID,0,VALID,94.012,VALID,374.97,VALID,22.6452,VALID,277,VALID,0,
2017-02-07, 16:58:04,VALID,920.038,VALID,0,VALID,85.6948,VALID,391.086,VALID,22.585,VALID,38,VALID,0,
2017-02-07, 16:59:04,VALID,920.039,VALID,0,VALID,87.0747,VALID,394.846,VALID,22.5477,VALID,19,VALID,0,
2017-02-07, 17:00:04,VALID,920.022,VALID,0,VALID,95.5824,VALID,394.739,VALID,22.6045,VALID,16,VALID,0,
2017-02-07, 17:01:04,VALID,920.049,VALID,0,VALID,95.712,VALID,404.194,VALID,22.6825,VALID,24,VALID,0.0289063,
2017-02-07, 17:02:04,VALID,920.054,VALID,0,VALID,90.5433,VALID,426.112,VALID,22.8599,VALID,324,VALID,0.0449219,
2017-02-07, 17:03:04,VALID,920.062,VALID,0,VALID,88.4164,VALID,392.375,VALID,22.8209,VALID,1,VALID,0,
2017-02-07, 17:04:04,VALID,920.076,VALID,0,VALID,90.3146,VALID,407.309,VALID,22.7606,VALID,325,VALID,0.0203125,
2017-02-07, 17:05:04,VALID,920.006,VALID,0,VALID,88.3554,VALID,545.586,VALID,22.7216,VALID,18,VALID,0,
2017-02-07, 17:06:04,VALID,920.063,VALID,0,VALID,100.637,VALID,511.957,VALID,22.6825,VALID,351,VALID,0.374609,
2017-02-07, 17:07:04,VALID,920.013,VALID,0,VALID,97.3968,VALID,559.124,VALID,22.6825,VALID,24,VALID,0.925391,
2017-02-07, 17:08:04,VALID,920.05,VALID,0,VALID,92.9523,VALID,395.813,VALID,22.7411,VALID,31,VALID,0.0078125,
2017-02-07, 17:09:04,VALID,920.037,VALID,0,VALID,92.7465,VALID,782.601,VALID,22.8582,VALID,337,VALID,0.117969,
2017-02-07, 17:10:04,VALID,919.997,VALID,0,VALID,88.2868,VALID,375.937,VALID,22.9948,VALID,229,VALID,0,
2017-02-07, 17:11:04,VALID,919.994,VALID,0,VALID,87.4634,VALID,369.49,VALID,23.1119,VALID,10,VALID,0.00429688,
2017-02-07, 17:12:04,VALID,919.954,VALID,0,VALID,85.7101,VALID,803.982,VALID,23.1119,VALID,326,VALID,0.0195313,
2017-02-07, 17:13:04,VALID,919.909,VALID,0,VALID,94.1339,VALID,748.113,VALID,23.2467,VALID,35,VALID,0.167969,
2017-02-07, 17:14:04,VALID,919.904,VALID,0,VALID,88.0733,VALID,502.61,VALID,23.4241,VALID,333,VALID,0,
2017-02-07, 17:15:04,VALID,919.905,VALID,0,VALID,85.4204,VALID,608.332,VALID,23.4632,VALID,2,VALID,0.816016,
2017-02-07, 17:16:04,VALID,919.888,VALID,0,VALID,85.9464,VALID,408.706,VALID,23.4632,VALID,15,VALID,1.77813,
2017-02-07, 17:17:04,VALID,919.927,VALID,0,VALID,89.8725,VALID,341.018,VALID,23.5199,VALID,11,VALID,0.411719,
2017-02-07, 17:18:04,VALID,919.842,VALID,0,VALID,84.5437,VALID,694.714,VALID,23.307,VALID,33,VALID,2.11445,
2017-02-07, 17:19:04,VALID,919.871,VALID,0,VALID,91.5572,VALID,705.888,VALID,23.2094,VALID,27,VALID,0.0382813,
2017-02-07, 17:20:04,VALID,919.836,VALID,0,VALID,92.9218,VALID,473.386,VALID,23.3443,VALID,35,VALID,0.493359,
2017-02-07, 17:21:04,VALID,919.777,VALID,0,VALID,85.7406,VALID,508.197,VALID,23.3461,VALID,359,VALID,0.0417969,
2017-02-07, 17:22:04,VALID,919.757,VALID,0,VALID,91.7935,VALID,802.263,VALID,23.1882,VALID,9,VALID,0.733984,
2017-02-07, 17:23:04,VALID,919.764,VALID,0,INVALID,116.501,VALID,442.765,VALID,23.2662,VALID,17,VALID,1.68086,
2017-02-07, 17:24:04,VALID,919.721,VALID,0,VALID,88.889,VALID,353.267,VALID,23.3656,VALID,359,VALID,0.758984,
2017-02-07, 17:25:04,VALID,919.716,VALID,0,VALID,89.1406,VALID,507.982,VALID,23.3656,VALID,30,VALID,0.0371094,
2017-02-07, 17:26:04,VALID,919.688,VALID,0,VALID,88.2487,VALID,439.327,VALID,23.4632,VALID,29,VALID,0.760547,
2017-02-07, 17:27:04,VALID,919.727,VALID,0,VALID,94.8582,VALID,861.356,VALID,23.5022,VALID,17,VALID,1.22852,
2017-02-07, 17:28:04,VALID,919.714,VALID,0,VALID,93.3335,VALID,391.086,VALID,23.6584,VALID,35,VALID,0.00742187,
2017-02-07, 17:29:04,VALID,919.71,VALID,0,VALID,88.424,VALID,345.531,VALID,23.8322,VALID,329,VALID,0,
2017-02-07, 17:30:04,VALID,919.723,VALID,0,VALID,86.785,VALID,326.084,VALID,23.7932,VALID,26,VALID,0.00429688,
2017-02-07, 17:31:04,VALID,919.674,VALID,0,VALID,87.6769,VALID,303.521,VALID,23.7737,VALID,8,VALID,0,
2017-02-07, 17:32:04,VALID,919.71,VALID,0,VALID,86.5791,VALID,297.612,VALID,23.7542,VALID,12,VALID,0.251563,
2017-02-07, 17:33:04,VALID,919.735,VALID,0,VALID,86.5258,VALID,285.579,VALID,23.4614,VALID,20,VALID,0.502734,
2017-02-07, 17:34:04,VALID,919.737,VALID,0,VALID,91.5267,VALID,267.099,VALID,23.2485,VALID,358,VALID,0.0984375,
2017-02-07, 17:35:04,VALID,919.835,VALID,0,VALID,90.5662,VALID,229.709,VALID,23.1296,VALID,348,VALID,0.0632813,
2017-02-07, 17:36:04,VALID,919.843,VALID,0,VALID,97.008,VALID,217.783,VALID,23.0516,VALID,64,VALID,0,
2017-02-07, 17:37:04,VALID,919.828,VALID,0,INVALID,110.677,VALID,273.115,VALID,22.9345,VALID,124,VALID,0,
2017-02-07, 17:38:04,VALID,919.824,VALID,0,INVALID,124.62,VALID,272.901,VALID,22.8564,VALID,21,VALID,0.292188,
2017-02-07, 17:39:04,VALID,919.838,VALID,0,INVALID,126.526,VALID,377.978,VALID,22.8369,VALID,351,VALID,0,
2017-02-07, 17:40:04,VALID,919.804,VALID,0,INVALID,125.55,VALID,522.271,VALID,22.6986,VALID,172,VALID,0,
2017-02-07, 17:41:04,VALID,919.762,VALID,0,INVALID,114.405,VALID,474.245,VALID,22.3686,VALID,337,VALID,0.313281,
2017-02-07, 17:42:04,VALID,919.687,VALID,0,INVALID,125.382,VALID,562.777,VALID,22.2126,VALID,357,VALID,1.90977,
2017-02-07, 17:43:04,VALID,919.673,VALID,0,INVALID,126.168,VALID,419.665,VALID,22.037,VALID,337,VALID,0,
2017-02-07, 17:44:04,VALID,919.673,VALID,0,INVALID,129.057,VALID,356.275,VALID,22.0955,VALID,304,VALID,0.45625,
2017-02-07, 17:45:04,VALID,919.75,VALID,0,INVALID,130.162,VALID,419.88,VALID,22.1931,VALID,10,VALID,0.700781,
2017-02-07, 17:46:04,VALID,919.808,VALID,0,INVALID,128.843,VALID,385.929,VALID,22.1719,VALID,313,VALID,0.545703,
2017-02-07, 17:47:04,VALID,919.771,VALID,0,INVALID,128.439,VALID,313.728,VALID,22.2321,VALID,343,VALID,0.911719,
2017-02-07, 17:48:04,VALID,919.764,VALID,0,INVALID,127.944,VALID,437.715,VALID,22.2516,VALID,355,VALID,1.45664,
2017-02-07, 17:49:04,VALID,919.748,VALID,0,INVALID,128.538,VALID,525.387,VALID,22.2711,VALID,352,VALID,0,
2017-02-07, 17:50:04,VALID,919.721,VALID,0,INVALID,129.529,VALID,370.35,VALID,22.406,VALID,26,VALID,0,
2017-02-07, 17:51:04,VALID,919.766,VALID,0,INVALID,128.409,VALID,335.646,VALID,22.5442,VALID,298,VALID,0,
2017-02-07, 17:52:04,VALID,919.719,VALID,0,INVALID,126.457,VALID,343.704,VALID,22.5833,VALID,20,VALID,0,
2017-02-07, 17:53:04,VALID,919.727,VALID,0,INVALID,124.711,VALID,358.746,VALID,22.6418,VALID,346,VALID,0,
2017-02-07, 17:54:04,VALID,919.743,VALID,0,INVALID,125.855,VALID,348.861,VALID,22.7003,VALID,216,VALID,0,
2017-02-07, 17:55:04,VALID,919.719,VALID,0,INVALID,124.33,VALID,403.656,VALID,22.7198,VALID,241,VALID,0,
2017-02-07, 17:56:04,VALID,919.676,VALID,0,INVALID,126.602,VALID,417.624,VALID,22.8564,VALID,241,VALID,0,
2017-02-07, 17:57:04,VALID,919.701,VALID,0,INVALID,125.26,VALID,418.698,VALID,23.0125,VALID,330,VALID,0,
2017-02-07, 17:58:04,VALID,919.651,VALID,0,INVALID,121.837,VALID,775.08,VALID,23.1101,VALID,212,VALID,0,
2017-02-07, 17:59:04,VALID,919.646,VALID,0,INVALID,111.348,VALID,650.341,VALID,23.2272,VALID,40,VALID,0.408984,
2017-02-07, 18:00:04,VALID,919.633,VALID,0,VALID,99.4322,VALID,426.756,VALID,23.3248,VALID,250,VALID,0.173438,
2017-02-07, 18:01:04,VALID,919.66,VALID,0,INVALID,112.407,VALID,720.071,VALID,23.4419,VALID,29,VALID,0,
2017-02-07, 18:02:04,VALID,919.663,VALID,0,VALID,101.437,VALID,604.357,VALID,23.6548,VALID,145,VALID,0,
2017-02-07, 18:03:04,VALID,919.665,VALID,0,VALID,94.0196,VALID,660.763,VALID,23.889,VALID,213,VALID,0,
2017-02-07, 18:04:04,VALID,919.639,VALID,0,VALID,85.8015,VALID,734.253,VALID,24.086,VALID,233,VALID,0,
2017-02-07, 18:05:04,VALID,919.646,VALID,0,VALID,84.6733,VALID,684.508,VALID,24.1232,VALID,217,VALID,0,
2017-02-07, 18:06:04,VALID,919.665,VALID,0,VALID,84.5818,VALID,987.706,VALID,24.2013,VALID,274,VALID,0,
2017-02-07, 18:07:04,VALID,919.623,VALID,0,VALID,83.4002,VALID,971.161,VALID,24.0061,VALID,255,VALID,0.505078,
2017-02-07, 18:08:04,VALID,919.614,VALID,0,VALID,83.8804,VALID,708.037,VALID,23.9884,VALID,254,VALID,0.180859,
2017-02-07, 18:09:04,VALID,919.663,VALID,0,VALID,87.5397,VALID,747.038,VALID,24.0646,VALID,308,VALID,1.03125,
2017-02-07, 18:10:04,VALID,919.633,VALID,0,VALID,85.0697,VALID,536.131,VALID,23.9085,VALID,282,VALID,0.0195313,
2017-02-07, 18:11:04,VALID,919.595,VALID,0,VALID,89.194,VALID,977.392,VALID,23.9475,VALID,321,VALID,0,
2017-02-07, 18:12:04,VALID,919.602,VALID,0,VALID,86.6706,VALID,801.941,VALID,24.0061,VALID,341,VALID,0,
2017-02-07, 18:13:04,VALID,919.59,VALID,0,VALID,86.7621,VALID,588.24,VALID,24.2226,VALID,262,VALID,0,
2017-02-07, 18:14:04,VALID,919.62,VALID,0,VALID,86.137,VALID,1095.58,VALID,24.3769,VALID,268,VALID,0.00664063,
2017-02-07, 18:15:04,VALID,919.612,VALID,0,VALID,84.437,VALID,1052.6,VALID,24.5545,VALID,1,VALID,0.00429688,
2017-02-07, 18:16:04,VALID,919.592,VALID,0,VALID,83.2782,VALID,828.156,VALID,24.7497,VALID,251,VALID,0,
2017-02-07, 18:17:04,VALID,919.531,VALID,0,VALID,79.6571,VALID,570.835,VALID,24.8083,VALID,267,VALID,0.471484,
2017-02-07, 18:18:04,VALID,919.5,VALID,0,VALID,80.9531,VALID,1003.29,VALID,24.4374,VALID,264,VALID,0.01875,
2017-02-07, 18:19:04,VALID,919.478,VALID,0,VALID,81.2656,VALID,963.532,VALID,24.1427,VALID,239,VALID,0,
2017-02-07, 18:20:04,VALID,919.471,VALID,0,VALID,82.2338,VALID,937.961,VALID,24.125,VALID,210,VALID,0,
2017-02-07, 18:21:04,VALID,919.461,VALID,0,VALID,82.3634,VALID,827.727,VALID,24.1037,VALID,239,VALID,0,
2017-02-07, 18:22:04,VALID,919.443,VALID,0,VALID,81.0979,VALID,683.326,VALID,24.1445,VALID,315,VALID,0.283594,
2017-02-07, 18:23:04,VALID,919.43,VALID,0,VALID,82.6759,VALID,977.607,VALID,24.125,VALID,233,VALID,0.188281,
2017-02-07, 18:24:04,VALID,919.413,VALID,0,VALID,84.1091,VALID,958.268,VALID,24.1037,VALID,315,VALID,0.046875,
2017-02-07, 18:25:04,VALID,919.365,VALID,0,VALID,83.3468,VALID,960.846,VALID,24.1037,VALID,249,VALID,0.0195313,
2017-02-07, 18:26:04,VALID,919.385,VALID,0,VALID,84.2311,VALID,936.672,VALID,24.2989,VALID,11,VALID,0.291797,
2017-02-07, 18:27:04,VALID,919.379,VALID,0,VALID,80.0078,VALID,925.283,VALID,24.5331,VALID,282,VALID,0.396094,
2017-02-07, 18:28:04,VALID,919.388,VALID,0,VALID,81.4333,VALID,907.555,VALID,24.6893,VALID,229,VALID,0,
2017-02-07, 18:29:04,VALID,919.342,VALID,0,VALID,78.5974,VALID,744.137,VALID,24.8845,VALID,287,VALID,0,
2017-02-07, 18:30:04,VALID,919.321,VALID,0,VALID,74.3664,VALID,717.385,VALID,24.9821,VALID,302,VALID,1.56094,
2017-02-07, 18:31:04,VALID,919.306,VALID,0,VALID,72.918,VALID,1024.45,VALID,24.6893,VALID,250,VALID,1.90078,
2017-02-07, 18:32:04,VALID,919.245,VALID,0,VALID,79.032,VALID,434.277,VALID,24.3379,VALID,237,VALID,0.166797,
2017-02-07, 18:33:04,VALID,919.252,VALID,0,VALID,83.2401,VALID,439.434,VALID,24.2989,VALID,273,VALID,0,
2017-02-07, 18:34:04,VALID,919.222,VALID,0,VALID,83.0724,VALID,776.799,VALID,24.5508,VALID,9,VALID,0.394531,
2017-02-07, 18:35:04,VALID,919.29,VALID,0,VALID,83.1715,VALID,376.689,VALID,24.7283,VALID,287,VALID,0,
2017-02-07, 18:36:04,VALID,919.276,VALID,0,VALID,77.4082,VALID,348.539,VALID,24.5526,VALID,258,VALID,1.97461,
2017-02-07, 18:37:04,VALID,919.247,VALID,0,VALID,80.9073,VALID,502.825,VALID,23.9866,VALID,246,VALID,1.92266,
2017-02-07, 18:38:04,VALID,919.185,VALID,0,VALID,82.9428,VALID,414.293,VALID,23.7914,VALID,274,VALID,0,